Location: Deluxe Mobile Home Park
(40.7997°N, 81.3844°W)
Time: 04:58:56
(UTC+00:00)

Daily predictions for brighter satellites

Satellite Brightness Start Highest point End
(mag) Time Altitude Azimuth Time Altitude Azimuth Time Altitude Azimuth
NOSS 3-2 (C) 4.3 00:01:21 10° NNW 00:08:57 65° NE 00:17:40 10° SE
CZ-4 R/B 1.9 00:05:54 10° SE 00:09:26 36° ENE 00:13:02 10° N
PAYLOAD B 4.3 00:05:27 10° SSE 00:10:57 78° ENE 00:16:33 10° N
Cosmos 2219 Rocket 4.1 00:07:14 10° NW 00:12:20 35° WSW 00:17:25 10° SSW
Cosmos 2016 Rocket 4.0 00:06:52 10° N 00:12:58 63° E 00:19:04 10° SSE
Cosmos 1271 Rocket 4.0 00:10:33 10° SE 00:13:14 19° E 00:15:55 10° NE
Cosmos 2173 Rocket 4.3 00:09:38 10° N 00:16:02 78° W 00:22:20 10° S
Lacrosse 5 rocket 3.1 00:12:18 10° WSW 00:16:17 34° NW 00:20:08 10° NNE
Cosmos 1802 Rocket 4.1 00:10:08 10° N 00:16:28 81° E 00:22:51 10° S
CZ-4B R/B 3.3 00:12:02 10° SSE 00:17:36 63° ENE 00:23:08 10° N
Cosmos 2123 Rocket 4.0 00:11:43 10° S 00:18:00 81° E 00:24:21 10° N
BREEZE-M DEB (TANK) 4.5 00:17:35 10° SSE 00:19:41 17° ESE 00:22:53 10° ENE
Cosmos 1980 3.8 00:16:48 10° NNW 00:22:29 66° ENE 00:28:07 10° SSE
USA 238 DEB 4.1 00:16:03 10° NNW 00:23:22 62° NE 00:31:06 10° SE
USA 238 4.1 00:16:09 10° NNW 00:23:28 62° NE 00:31:12 10° SE
PSLV R/B 4.0 00:23:19 10° S 00:27:17 80° WSW 00:31:14 10° NNW
SL-08 R/B 4.5 00:21:54 10° N 00:28:14 72° E 00:34:24 10° SSE
GEOS 3 Rocket 3.9 00:23:20 10° NE 00:28:35 52° ESE 00:33:48 10° SSW
CZ-4C R/B 4.1 00:24:01 10° NNW 00:29:52 26° NE 00:36:13 11° E
SJ-6B 3.4 00:27:01 10° SE 00:30:32 34° ENE 00:34:01 10° N
Feng Yun 1-1 Rocket 4.4 00:27:30 10° SSE 00:32:56 58° ENE 00:38:33 10° N
BlueWalker 3 1.9 00:29:44 10° SW 00:33:39 84° SE 00:37:33 10° NE
Cosmos 1470 4.1 00:32:31 10° SE 00:35:17 19° E 00:38:03 10° NE
Cosmos 2297 Rocket 2.4 00:29:57 10° SSW 00:35:35 76° WNW 00:41:16 10° NNE
NOSS 2-1 (E) 4.1 00:33:01 10° S 00:35:50 22° ESE 00:38:18 10° ENE
Cosmos 1850 Rocket 4.3 00:33:22 10° NNW 00:38:42 72° WSW 00:44:00 10° S
SL-14 R/B 3.1 00:36:04 10° N 00:39:54 88° E 00:43:44 10° S
Cosmos 1733 Rocket 3.1 00:36:27 10° S 00:40:36 51° E 00:44:48 10° NNE
Okean 2 3.5 00:37:34 10° N 00:41:39 77° W 00:45:44 10° S
Cosmos 1674 Rocket 4.5 00:40:19 10° NNE 00:44:01 27° ENE 00:46:34 16° ESE
IGS 5A 3.4 00:40:39 10° SSE 00:44:45 81° ENE 00:48:53 10° N
Cosmos 2082 4.3 00:41:24 10° SSE 00:46:17 32° ESE 00:51:11 10° NE
ISS -2.1 00:45:17 10° NNW 00:48:02 23° NNE 00:49:52 15° ENE
USA 215 4.2 00:44:14 10° NE 00:50:28 48° NNW 00:56:40 10° WSW
Cosmos 1378 Rocket 4.2 00:47:09 10° N 00:51:13 35° ENE 00:54:06 17° SE
Cosmos 2227 Rocket 2.2 00:46:45 10° SSW 00:52:24 89° ESE 00:58:06 10° NNE
Cosmos 2219 3.1 00:48:22 10° SSW 00:53:55 68° ESE 00:59:29 10° NNE
Cosmos 968 Rocket 3.4 00:49:55 10° NNW 00:55:02 65° ENE 00:59:43 12° SSE
USA 186 1.7 00:53:36 15° SSE 00:56:01 59° ENE 00:59:06 10° N
BREEZE-M DEB (TANK) 3.7 00:54:43 10° WNW 00:57:18 22° SW 00:59:03 11° S
GPS 2-04 Rocket1 3.8 00:54:34 10° SW 00:57:26 23° SSE 00:58:15 21° SE
YAOGAN 1 4.3 00:53:47 10° SSW 00:57:42 33° W 01:01:37 10° NNW
Resurs 1-3 3.7 00:54:02 10° SSE 00:58:14 56° ENE 01:02:31 10° N
Meteor 1-15 Rocket 4.5 00:53:49 10° SSE 00:59:20 48° E 01:04:58 10° NNE
Resurs 01 Rocket 2.7 00:58:08 22° E 00:59:31 26° ENE 01:03:09 10° NNE
USA 281 4.1 00:53:23 10° NNE 00:59:44 53° WNW 01:06:04 10° SW
Cosmos 2233 Rocket 4.0 00:57:43 10° N 01:03:55 84° W 01:10:09 10° S
Meteor 2-13 Rocket 4.4 00:58:34 10° S 01:04:42 75° E 01:10:52 10° NNE
ATLAS 2AS CENTAUR R/B 3.8 01:00:06 10° SSE 01:05:42 22° ESE 01:11:13 10° ENE
BREEZE-M DEB (TANK) 4.1 01:03:44 10° WNW 01:08:28 27° N 01:09:59 18° NE
SWARM A 4.2 01:06:32 10° S 01:09:58 75° E 01:13:28 10° N
SJ 16-02 2.8 01:07:30 10° NNE 01:10:49 20° ENE 01:11:01 20° ENE
CZ-3 Stage 3 3.6 01:08:37 10° SW 01:11:34 29° SSE 01:13:52 22° SE
Landsat 7 3.7 01:07:10 10° SSE 01:11:52 89° ENE 01:16:37 10° NNW
SPOT 1/Viking Rocket 3.9 01:09:21 24° SE 01:12:09 45° ENE 01:17:05 10° N
Cosmos 1766 3.8 01:08:53 10° SSW 01:12:36 57° W 01:16:21 10° N
SL-16 R/B 2.4 01:08:18 10° NNW 01:13:51 51° ENE 01:16:39 28° SE
CSL-04 Rocket 3.6 01:08:23 10° SSE 01:13:55 78° ENE 01:19:26 10° N
Cosmos 1908 Rocket 3.9 01:13:28 25° SE 01:15:31 41° E 01:19:43 10° NNE
SL-4 R/B 3.7 01:11:36 10° W 01:15:54 36° NNW 01:20:11 10° NE
USA 267 3.2 01:19:37 24° SE 01:23:54 85° SW 01:30:30 10° NW
NOSS 3-4 (A) 4.0 01:18:41 10° SW 01:24:07 54° NW 01:30:02 10° NNE
Okean O Rocket 3.1 01:20:04 10° SSW 01:24:08 37° W 01:28:14 10° NNW
NOSS 3-4 (C) 4.0 01:18:47 10° SW 01:24:14 54° NW 01:30:08 10° NNE
Ariane Rocket 4.4 01:24:29 21° ENE 01:24:29 21° ENE 01:28:06 10° NNE
Okean-O 2.5 01:24:34 28° SSE 01:26:53 80° ENE 01:31:19 10° N
NOSS 2-1 (C) 2.9 01:23:48 10° SW 01:27:18 72° NW 01:29:10 22° NNE
Cosmos 2263 Rocket 2.2 01:25:16 10° S 01:30:37 50° ESE 01:35:58 10° NE
Cosmos 2221 Rocket 3.7 01:26:49 10° NNW 01:31:13 72° W 01:34:22 18° S
Atlas Centaur 2 3.2 01:28:19 10° SW 01:31:33 22° S 01:31:33 22° S
Cosmos 2034 Rocket 4.5 01:26:21 10° N 01:32:00 36° ENE 01:33:01 34° E
NOSS 2-1 (D) 3.2 01:28:37 10° SW 01:32:11 63° NW 01:34:16 20° NNE
SAR-Lupe-3 4.4 01:36:21 69° S 01:36:44 86° WSW 01:40:19 10° NNW
H-2A R/B 4.2 01:43:57 22° NE 01:43:57 22° NE 01:46:19 10° NNE
Cosmos 2237 Rocket 4.0 01:38:44 10° NW 01:43:26 28° WSW 01:48:08 10° SSW
CZ-4 R/B 4.2 01:42:06 10° SW 01:44:25 15° W 01:46:46 10° NW
Cosmos 1072 Rocket 4.4 01:40:00 10° N 01:46:24 77° E 01:49:22 34° SSE
Meteor 2-5 Rocket 3.7 01:43:55 10° N 01:49:50 87° ENE 01:52:25 36° S
Geosat 4.1 01:54:10 53° ENE 01:54:22 53° ENE 01:59:15 10° NNW
Lacrosse 5 rocket 4.3 01:55:08 10° NNW 01:56:11 11° NNW 01:57:15 10° N
ADEOS Rocket 4.1 01:57:26 30° ENE 01:57:47 31° ENE 02:03:49 10° N
Meteor 2-15 4.4 01:52:50 10° N 01:58:59 83° W 02:01:41 36° S
Cosmos 220 Rocket 4.4 01:55:04 10° NNW 01:58:27 53° NNE 01:58:27 53° NNE
Cosmos 1340 Rocket 4.4 01:56:58 10° N 01:58:47 25° NNE 01:58:47 25° NNE
Meteor 2-8 Rocket 4.4 01:57:11 10° N 02:03:22 85° W 02:05:38 42° S
FALCON 9 R/B 3.5 01:44:40 10° W 02:07:42 59° SSW 02:10:07 45° SSE
Meteor 2-15 Rocket 4.3 02:01:58 10° N 02:08:08 88° E 02:09:32 56° S
IRS-1A Rocket 4.2 02:11:34 69° SSE 02:12:19 85° ENE 02:18:10 10° NNW
Cosmos 1464 Rocket 4.1 02:06:06 10° N 02:12:27 74° W 02:14:57 39° S
MOS 1 4.3 02:11:27 59° S 02:12:35 80° WSW 02:18:20 10° NNW
BlueWalker 3 4.2 02:09:33 10° WNW 02:12:37 22° NNW 02:13:46 19° N
Cosmos 1943 3.8 02:09:10 10° NNW 02:13:52 43° NE 02:13:52 43° NE
MetOp-A 3.9 02:14:55 83° NNE 02:14:55 83° NNE 02:19:52 10° NNW
Cosmos 1503 Rocket 4.3 02:12:16 10° NNW 02:16:44 56° NNE 02:16:44 56° NNE
CZ-4C R/B 3.0 02:11:48 10° NW 02:19:19 88° NE 02:21:24 57° SE
Meteor 2-19 Rocket 4.4 02:19:13 51° SSW 02:20:54 83° W 02:27:03 10° N
CARTOSAT-1 4.4 02:22:02 48° NW 02:22:02 48° NW 02:25:18 10° NNW
ISS -1.0 02:21:43 10° WNW 02:22:47 19° WNW 02:22:47 19° WNW
SPOT 5 4.0 02:28:03 34° NNE 02:28:03 34° NNE 02:31:01 10° N
SPOT 3 Rocket 4.4 02:28:38 40° NNE 02:28:38 40° NNE 02:32:10 10° N
Cosmos 1486 Rocket 4.3 02:22:14 10° NNW 02:27:22 63° W 02:27:22 63° W
Resurs 01 Rocket 3.3 02:35:39 28° W 02:35:52 28° W 02:39:42 10° NW
ERS-1 Rocket 4.3 02:41:14 32° N 02:41:14 32° N 02:44:00 10° N
SJ 16-02 3.2 02:45:22 10° NW 02:47:56 28° WNW 02:47:56 28° WNW
Cosmos 1634 Rocket 4.4 02:46:45 10° N 02:51:39 56° N 02:51:39 56° N
ATLAS 2AS CENTAUR R/B 2.9 02:48:16 10° SW 02:55:58 79° NW 03:03:26 10° NNE
SL-16 R/B 4.1 02:53:17 10° NW 02:57:32 22° W 02:58:34 21° WSW
Ariane Rocket 4.4 03:04:39 35° NW 03:04:39 35° NW 03:07:54 10° NNW
Terra 3.9 03:06:53 23° N 03:06:53 23° N 03:08:37 10° NNW
Cosmos 2263 Rocket 4.2 03:10:20 10° WSW 03:14:47 24° NW 03:19:17 10° N
ATLAS 3B R/B 3.5 03:19:56 10° NNW 03:26:04 51° NNE 03:26:04 51° NNE
ADEOS Rocket 4.2 03:44:22 43° WNW 03:44:22 43° WNW 03:49:43 10° NNW
ADEOS II 4.3 07:08:00 10° NNE 07:09:51 21° NE 07:09:51 21° NE
Lacrosse 5 4.3 07:23:05 18° NNE 07:23:05 18° NNE 07:24:39 10° NNE
SL-16 R/B 3.8 07:36:38 35° N 07:36:38 35° N 07:40:02 10° NNW
Cosmos 2369 Rocket 3.8 07:38:50 29° N 07:38:50 29° N 07:41:32 10° NNE
Cosmos 1943 Rocket 4.5 07:56:33 14° NNW 07:56:33 14° NNW 07:58:03 10° NNW
Resurs 1-4 Rocket 4.1 07:51:41 10° N 07:53:37 21° NNW 07:53:37 21° NNW
IDEFIX/ARIANE 42P 4.3 07:55:04 10° N 07:57:13 24° N 07:57:13 24° N
CZ-2D R/B 4.0 07:57:03 10° N 07:59:02 22° NNW 07:59:02 22° NNW
ALOS 3.9 08:02:37 10° NNE 08:05:38 32° ENE 08:05:38 32° ENE
CZ-2C R/B 3.9 08:11:01 10° NE 08:15:18 30° E 08:15:47 30° ESE
DELTA 2 R/B (1) 3.9 08:30:16 59° ESE 08:30:16 59° ESE 08:34:51 10° E
ATLAS CENTAUR R/B 4.1 08:37:19 12° NNW 08:37:19 12° NNW 08:38:12 10° N
Cosmos 923 Rocket 4.5 08:39:21 50° NNW 08:39:21 50° NNW 08:43:26 10° NNE
BREEZE-M DEB (TANK) 4.4 08:43:42 42° WNW 08:45:39 53° NNW 08:49:18 10° NE
Cosmos 1680 Rocket 3.5 08:46:11 68° NNW 08:46:11 68° NNW 08:51:00 10° NNE
Timation 1 Rocket 4.2 08:44:58 10° NNW 08:50:59 78° WSW 08:56:57 10° SSE
Cosmos 1461 3.3 08:52:22 64° NNE 08:52:22 64° NNE 08:56:14 10° NNE
ADEOS II 3.8 08:48:25 10° NNW 08:50:46 19° NW 08:50:46 19° NW
NOSS 3-4 (A) 4.2 08:49:53 10° NNW 08:56:55 67° NE 09:04:53 10° SE
NOSS 3-4 (C) 4.2 08:49:59 10° NNW 08:57:00 66° NE 09:04:59 10° SE
Cosmos 2112 Rocket 3.9 08:57:27 68° WNW 08:57:27 68° WNW 09:02:43 10° NNE
Meteor 1-14 Rocket 4.5 08:52:25 10° N 08:57:56 66° E 09:03:31 10° SSE
METEOR-M 4.3 08:52:50 10° NNE 08:58:10 71° ESE 09:00:05 40° S
Cosmos 2184 Rocket 3.8 08:58:10 54° SSW 08:59:37 75° W 09:05:48 10° N
Genesis I 4.5 09:02:49 33° N 09:02:49 33° N 09:05:25 10° NNE
Cosmos 1371 Rocket 4.0 08:56:34 10° NNW 09:01:46 81° ENE 09:06:57 10° SSE
ARIANE 5 R/B 4.1 08:58:46 10° NNE 09:03:25 33° E 09:08:05 10° SSE
Cosmos 1515 4.1 09:04:09 57° E 09:04:09 57° E 09:07:45 10° NNE
Lacrosse 5 4.2 09:02:17 11° NW 09:04:23 14° NNW 09:07:04 10° NNE
Cosmos 1500 Rocket 3.5 09:02:06 10° N 09:06:26 82° E 09:07:18 56° SSE
IRS-1D 3.8 09:02:31 10° N 09:07:02 47° WNW 09:07:02 47° WNW
CZ-2C R/B 3.3 09:02:31 10° NNE 09:07:17 62° E 09:09:56 27° S
Meteor 1-5 Rocket 4.2 09:02:05 10° NNW 09:07:49 68° W 09:10:26 34° SSW
Cosmos 2181 Rocket 4.3 09:02:29 10° NNW 09:08:31 44° W 09:08:38 44° W
Cosmos 2056 Rocket 3.4 09:04:03 10° NNW 09:09:17 89° ENE 09:14:35 10° SSE
SeaSat 1 3.6 09:09:41 10° N 09:13:47 28° NW 09:13:47 28° NW
Cosmos 1805 Rocket 3.8 09:09:25 10° N 09:13:52 69° E 09:18:17 10° SSE
Cosmos 972 Rocket 4.1 09:07:46 10° NNW 09:13:54 84° WSW 09:19:18 10° SSE
Cosmos 1484 Rocket 3.7 09:15:45 10° NNE 09:19:23 45° E 09:21:46 20° SSE
Cosmos 1624 Rocket 3.9 09:15:41 10° NNW 09:21:00 73° WSW 09:26:14 10° S
Cosmos 2369 Rocket 4.3 09:20:37 11° NW 09:21:06 11° NW 09:22:44 10° NNW
Cosmos 1420 Rocket 3.8 09:16:21 10° NNW 09:21:32 75° WSW 09:26:42 10° SSE
Cosmos 2154 Rocket 3.9 09:19:37 31° SSW 09:22:41 66° W 09:28:54 10° N
Cosmos 2297 Rocket 3.2 09:24:12 10° NNW 09:29:42 49° ENE 09:35:10 10° SE
CZ-2C R/B 2.9 09:26:47 23° SSW 09:30:04 49° W 09:35:26 10° NNW
Cosmos 1151 Rocket 3.3 09:28:04 15° S 09:31:38 68° E 09:35:56 10° NNE
CBERS-1 4.1 09:26:42 10° N 09:31:43 56° WNW 09:33:40 34° SW
Cosmos 494 Rocket 4.2 09:28:27 16° S 09:32:37 69° ESE 09:37:50 10° NNE
Nadezhda 3 Rocket 3.9 09:27:13 10° NNW 09:33:27 67° W 09:39:44 10° S
Cosmos 1607 3.9 09:32:49 31° SW 09:35:55 72° WNW 09:42:08 10° NNE
Cosmos 962 Rocket 4.5 09:31:14 10° S 09:37:21 85° E 09:43:34 10° N
PAYLOAD A 4.4 09:34:09 10° N 09:39:12 46° WNW 09:41:16 30° WSW
USA 32 4.0 09:37:11 10° N 09:42:27 88° W 09:47:41 10° S
ALOS 3.6 09:40:36 10° NNW 09:44:02 21° WNW 09:44:04 21° WNW
Helios 1A 3.4 09:44:29 35° WSW 09:45:06 37° W 09:48:58 10° NNW
Cosmos 1452 Rocket 4.2 09:41:15 10° NNW 09:46:29 59° ENE 09:51:40 10° SSE
Cosmos 2227 Rocket 3.6 09:41:12 10° N 09:46:32 40° ENE 09:51:49 10° SE
YAOGAN 6 2.8 09:45:24 10° N 09:48:49 48° WNW 09:49:53 35° WSW
Cosmos 1048 Rocket 4.0 09:44:38 12° SSW 09:49:33 89° ESE 09:54:58 10° NNE
COSMOS 2455 2.8 09:47:51 20° SW 09:52:08 72° WNW 09:58:11 10° NNE
Cosmos 1743 2.5 09:48:57 10° N 09:52:42 77° W 09:56:24 10° S
Envisat 3.0 09:47:53 10° N 09:52:53 61° WNW 09:57:25 13° SSW
CZ-2C R/B 3.3 09:49:12 10° N 09:53:24 30° WNW 09:55:08 24° WSW
SL-19 R/B 4.1 09:48:18 10° N 09:53:26 62° WNW 09:58:10 12° SSW
NOSS 2-1 (E) 4.1 09:49:26 10° NW 09:54:07 89° ENE 10:00:52 10° SSE
Sich 1 3.2 09:50:14 10° NNW 09:54:28 48° W 09:58:40 10° SSW
Cosmos 2341 Rocket 4.0 09:51:48 10° S 09:58:12 80° W 10:04:35 10° N
Meteor 1-11 Rocket 3.6 09:54:11 10° NNW 09:59:45 82° W 10:05:14 10° S
Cosmos 1666 Rocket 3.5 09:57:24 10° N 10:01:46 85° E 10:06:06 10° S
CZ-2D R/B 3.4 10:00:27 10° NNE 10:04:42 85° W 10:08:47 10° SSW
Cosmos 1656 3.8 10:01:43 17° SW 10:05:42 50° WNW 10:11:02 10° NNE
DMSP B5D2-2 4.3 10:02:29 10° SSE 10:07:41 73° ENE 10:12:53 10° N
GEOS 3 Rocket 3.6 10:03:35 10° SSE 10:08:44 71° SW 10:14:02 10° NW
Cosmos 2366 rocket 4.0 10:02:37 10° S 10:08:50 89° W 10:15:11 10° N
SAR-Lupe-2 4.2 10:10:22 10° N 10:13:38 34° WNW 10:16:14 14° SW
Cosmos 1633 Rocket 3.0 10:09:15 10° N 10:13:40 87° W 10:18:04 10° S
Helios 1B rocket 2.3 10:11:36 10° N 10:15:35 73° WNW 10:19:33 10° SSW
DELTA 2 R/B (1) 3.6 10:11:00 15° W 10:15:37 71° S 10:21:12 10° ESE
Cosmos 44 Rocket 3.5 10:11:16 10° SSW 10:15:56 71° ESE 10:20:45 10° NE
Cosmos 1939 Rocket 4.1 10:18:57 10° NNE 10:22:53 47° E 10:26:49 10° S
Cosmos 2360 4.2 10:17:13 10° SSW 10:22:55 80° WNW 10:28:41 10° NNE
SL-8 Rocket 4.1 10:17:39 10° SSW 10:23:50 58° W 10:30:02 10° N
Cosmos 405 Rocket 3.2 10:21:24 10° SW 10:24:43 34° WNW 10:28:04 10° N
Okean 1 3.2 10:25:18 10° SSW 10:29:11 68° W 10:33:08 10° N
ATLAS 2AS CENTAUR R/B 3.8 10:22:44 10° NNW 10:29:27 47° NE 10:35:46 10° ESE
H-2A R/B 3.1 10:28:30 10° N 10:31:52 38° WNW 10:35:10 10° SW
Cosmos 1437 Rocket 3.1 10:33:31 10° NNW 10:37:06 39° W 10:40:36 10° SSW
SL-08 R/B 3.4 10:32:41 10° S 10:37:27 58° W 10:42:11 10° NNW
Cosmos 1975 4.3 10:34:54 10° N 10:38:47 43° ENE 10:42:37 10° SSE
ARIANE 5 R/B 3.4 10:37:53 10° N 10:42:23 31° WNW 10:46:54 10° SW
Cosmos 1378 4.2 10:41:58 10° SW 10:44:53 23° WNW 10:47:49 10° NNW
GP-B 4.2 10:43:42 10° NNW 10:47:14 24° WNW 10:50:45 10° SW
Cosmos 1697 Rocket 2.9 10:41:52 10° SW 10:47:21 54° WNW 10:52:51 10° NNE
Lacrosse 5 4.3 10:46:37 10° NNW 10:49:22 14° NNE 10:52:06 10° NE
Cosmos 1470 Rocket 3.6 10:45:15 10° NNW 10:49:35 58° W 10:53:49 10° S
COSMO-SKYMED 1 2.5 10:46:16 10° S 10:50:35 77° WSW 10:54:57 10° NNW
